Date,TemperatureHighF,TemperatureAvgF,TemperatureLowF,DewpointHighF,DewpointAvgF,DewpointLowF,HumidityHigh,HumidityAvg,HumidityLow,PressureMaxIn,PressureMinIn,WindSpeedMaxMPH,WindSpeedAvgMPH,GustSpeedMaxMPH,PrecipitationSumIn
2013-3-1,66.2,63.8,59.7,56.9,54.2,49.3,76,71,63,29.98,29.89,12,1,12,0.00
2013-3-2,68.3,58.9,51.5,50.1,45.3,41.0,78,61,45,30.03,29.93,21,3,23,0.00
2013-3-3,64.1,56.5,49.9,49.2,45.7,43.3,78,68,53,30.13,29.96,16,1,16,0.00
2013-3-4,66.8,55.6,43.9,48.6,42.7,37.1,79,64,37,30.20,30.09,17,1,17,0.00
2013-3-5,75.9,63.5,49.9,59.7,52.6,42.3,77,68,53,30.16,30.07,9,1,11,0.00
2013-3-6,79.5,66.1,55.1,64.9,53.6,39.1,76,65,42,30.09,29.95,14,1,15,0.00
2013-3-7,71.6,59.1,48.1,51.7,43.9,39.0,77,59,31,30.16,30.06,14,2,17,0.00
2013-3-8,77.8,63.8,52.9,56.0,50.7,44.2,77,64,39,30.17,30.08,11,1,11,0.00
2013-3-9,78.2,66.0,55.0,61.1,54.3,46.5,76,67,52,30.17,30.08,14,1,14,0.00
2013-3-10,78.7,70.2,61.9,61.3,57.4,53.8,76,64,48,30.14,30.03,14,1,15,0.00
2013-3-11,79.7,72.2,67.6,65.1,62.1,59.4,76,71,59,30.08,29.94,12,1,14,0.00
2013-3-12,82.0,74.5,68.9,68.8,64.3,60.3,76,71,63,29.99,29.90,17,2,18,0.00
2013-3-13,78.4,68.7,58.3,60.8,55.1,48.7,76,63,38,30.10,29.96,17,2,19,0.00
2013-3-14,74.0,64.7,54.6,52.5,46.2,36.5,77,54,26,30.19,30.07,16,3,16,0.00
2013-3-15,75.5,64.0,54.5,53.2,47.3,35.6,77,58,25,30.23,30.12,15,2,15,0.00
2013-3-16,76.5,66.0,55.4,57.1,53.2,46.9,77,64,47,30.18,30.07,15,1,15,0.00
2013-3-17,78.2,68.6,57.1,62.6,57.5,48.2,76,68,54,30.12,30.00,12,1,12,0.00
2013-3-18,80.5,72.5,65.7,69.3,62.1,55.4,73,70,64,30.06,29.95,14,1,14,0.02
2013-3-19,77.6,72.8,66.8,66.9,60.8,54.6,71,66,63,30.01,29.86,12,0,12,0.11
2013-3-20,82.8,71.9,64.2,69.0,59.4,51.8,71,65,60,29.97,29.77,14,1,14,0.10
2013-3-21,78.1,69.3,64.0,59.2,55.6,50.7,73,62,46,29.93,29.82,12,1,12,0.00
2013-3-22,79.9,71.4,62.3,68.1,59.9,51.3,73,67,58,29.98,29.87,14,1,15,0.00
2013-3-23,86.0,78.3,73.0,73.8,64.1,56.9,69,62,55,29.96,29.81,13,2,15,0.00
2013-3-24,88.0,80.0,74.7,73.9,65.6,57.0,69,62,53,29.87,29.69,25,2,25,0.00
2013-3-25,82.2,77.0,68.1,67.7,59.0,38.4,70,55,33,29.98,29.73,13,2,14,0.01
2013-3-26,71.1,63.5,54.6,49.0,42.5,35.8,69,48,29,30.20,29.97,18,5,22,0.00
2013-3-27,70.9,58.8,46.4,51.9,42.4,38.0,76,56,42,30.24,30.13,15,3,15,0.00
2013-3-28,75.9,63.5,51.7,52.3,46.1,40.3,75,55,31,30.24,30.13,12,1,13,0.00
2013-3-29,77.4,66.5,56.7,56.0,50.7,42.3,69,57,45,30.26,30.17,18,1,18,0.00
2013-3-30,77.8,68.6,57.9,58.3,54.6,47.3,74,62,42,30.24,30.14,13,1,13,0.00
2013-3-31,81.5,72.7,63.6,68.0,61.5,49.7,74,68,58,30.18,30.03,11,1,14,0.00